TimeEDT,TemperatureF,Dew PointF,Humidity,Sea Level PressureIn,VisibilityMPH,Wind Direction,Wind SpeedMPH,Gust SpeedMPH,PrecipitationIn,Events,Conditions,WindDirDegrees,DateUTC
12:15 AM,57.4,55.0,92,30.04,0.2,Calm,Calm,-,N/A,Fog,Fog,0,2012-10-05 04:15:00
12:35 AM,57.2,54.7,91,30.04,0.2,Calm,Calm,-,N/A,Fog,Fog,0,2012-10-05 04:35:00
12:55 AM,56.7,54.5,92,30.03,0.2,Calm,Calm,-,N/A,Fog,Fog,0,2012-10-05 04:55:00
1:15 AM,56.5,54.1,92,30.03,0.2,Calm,Calm,-,N/A,Fog,Fog,0,2012-10-05 05:15:00
1:35 AM,56.3,53.8,91,30.03,0.2,Calm,Calm,-,N/A,Fog,Fog,0,2012-10-05 05:35:00
1:55 AM,56.3,53.8,91,30.02,0.2,Calm,Calm,-,N/A,Fog,Fog,0,2012-10-05 05:55:00
2:15 AM,56.3,53.8,91,30.02,0.2,Calm,Calm,-,N/A,Fog,Fog,0,2012-10-05 06:15:00
2:35 AM,55.9,53.6,92,30.01,0.2,Calm,Calm,-,N/A,Fog,Fog,0,2012-10-05 06:35:00
2:55 AM,55.4,53.1,92,30.01,0.2,Calm,Calm,-,N/A,Fog,Fog,0,2012-10-05 06:55:00
3:15 AM,55.0,52.7,92,30.01,0.2,Calm,Calm,-,N/A,Fog,Fog,0,2012-10-05 07:15:00
3:35 AM,55.4,53.1,92,30.01,0.2,Calm,Calm,-,N/A,Fog,Fog,0,2012-10-05 07:35:00
4:15 AM,55.4,52.9,91,30.01,0.2,Calm,Calm,-,N/A,Fog,Fog,0,2012-10-05 08:15:00
4:35 AM,55.0,52.7,92,30.01,0.2,Calm,Calm,-,N/A,Fog,Fog,0,2012-10-05 08:35:00
4:55 AM,54.9,52.7,92,30.01,0.2,Calm,Calm,-,N/A,Fog,Fog,0,2012-10-05 08:55:00
5:15 AM,55.0,52.7,92,30.02,0.2,Calm,Calm,-,N/A,Fog,Fog,0,2012-10-05 09:15:00
5:35 AM,55.2,52.9,92,30.02,0.2,Calm,Calm,-,N/A,Fog,Fog,0,2012-10-05 09:35:00
5:55 AM,54.7,52.3,92,30.02,0.2,Calm,Calm,-,N/A,Fog,Fog,0,2012-10-05 09:55:00
6:15 AM,54.9,52.7,92,30.02,0.2,Calm,Calm,-,N/A,Fog,Fog,0,2012-10-05 10:15:00
6:35 AM,55.0,52.7,92,30.02,0.2,Calm,Calm,-,N/A,Fog,Fog,0,2012-10-05 10:35:00
6:55 AM,55.0,52.7,92,30.01,0.2,South,4.6,-,N/A,Fog,Fog,170,2012-10-05 10:55:00
7:15 AM,54.5,52.2,92,30.02,0.2,West,3.5,-,N/A,Fog,Fog,270,2012-10-05 11:15:00
7:35 AM,54.5,52.2,92,30.02,0.2,Calm,Calm,-,N/A,Fog,Fog,0,2012-10-05 11:35:00
7:55 AM,54.7,52.3,92,30.02,0.2,Calm,Calm,-,N/A,Fog,Fog,0,2012-10-05 11:55:00
8:15 AM,54.9,52.5,92,30.02,0.2,Calm,Calm,-,N/A,Fog,Fog,0,2012-10-05 12:15:00
8:35 AM,54.9,52.7,92,30.03,0.2,Calm,Calm,-,N/A,Fog,Fog,0,2012-10-05 12:35:00
8:55 AM,55.2,52.7,91,30.02,0.2,SSW,3.5,-,N/A,Fog,Fog,200,2012-10-05 12:55:00
9:15 AM,55.4,53.1,92,30.02,0.2,Calm,Calm,-,N/A,Fog,Fog,0,2012-10-05 13:15:00
9:35 AM,55.4,53.1,92,30.02,0.2,SE,5.8,-,N/A,Fog,Fog,140,2012-10-05 13:35:00
9:55 AM,55.8,53.6,92,30.02,0.2,SW,3.5,-,N/A,Fog,Fog,220,2012-10-05 13:55:00
10:15 AM,56.1,53.6,91,30.02,0.8,SSW,4.6,-,N/A,,Overcast,200,2012-10-05 14:15:00
10:35 AM,56.5,54.1,92,30.02,1.8,South,3.5,-,N/A,,Overcast,190,2012-10-05 14:35:00
10:55 AM,57.2,54.5,91,30.01,4.0,SSE,4.6,-,N/A,,Overcast,160,2012-10-05 14:55:00
11:15 AM,57.9,55.6,92,30.01,5.0,SSE,5.8,-,N/A,,Overcast,160,2012-10-05 15:15:00
11:35 AM,58.5,55.9,91,30.01,7.0,SSE,3.5,-,N/A,,Overcast,150,2012-10-05 15:35:00
11:55 AM,59.2,56.7,91,30.00,10.0,SSE,4.6,-,N/A,,Mostly Cloudy,160,2012-10-05 15:55:00
12:15 PM,60.4,57.9,91,29.99,10.0,South,4.6,-,N/A,,Mostly Cloudy,190,2012-10-05 16:15:00
12:35 PM,61.9,59.2,91,29.99,10.0,West,3.5,-,N/A,,Scattered Clouds,270,2012-10-05 16:35:00
12:55 PM,63.5,60.6,90,29.98,10.0,Calm,Calm,-,N/A,,Scattered Clouds,0,2012-10-05 16:55:00
1:15 PM,66.0,62.8,89,29.97,10.0,SSE,8.1,-,N/A,,Scattered Clouds,150,2012-10-05 17:15:00
1:35 PM,68.0,56.3,66,29.95,10.0,SSE,5.8,-,N/A,,Mostly Cloudy,150,2012-10-05 17:35:00
1:55 PM,68.4,56.3,65,29.94,10.0,SSE,9.2,-,N/A,,Mostly Cloudy,160,2012-10-05 17:55:00
2:15 PM,69.8,56.7,63,29.93,10.0,South,5.8,-,N/A,,Mostly Cloudy,170,2012-10-05 18:15:00
2:35 PM,71.6,56.3,58,29.93,10.0,South,5.8,-,N/A,,Scattered Clouds,180,2012-10-05 18:35:00
2:55 PM,72.0,54.1,53,29.93,10.0,SW,6.9,-,N/A,,Clear,220,2012-10-05 18:55:00
3:15 PM,72.5,54.0,52,29.92,10.0,South,5.8,-,N/A,,Scattered Clouds,190,2012-10-05 19:15:00
3:35 PM,71.4,52.9,52,29.91,10.0,South,6.9,-,N/A,,Mostly Cloudy,190,2012-10-05 19:35:00
3:55 PM,70.5,50.9,50,29.91,10.0,SW,6.9,-,N/A,,Overcast,220,2012-10-05 19:55:00
4:15 PM,69.8,51.4,52,29.92,10.0,SW,5.8,-,N/A,,Mostly Cloudy,220,2012-10-05 20:15:00
4:35 PM,68.9,50.0,51,29.91,10.0,SW,6.9,-,N/A,,Mostly Cloudy,220,2012-10-05 20:35:00
4:55 PM,68.5,49.8,51,29.92,10.0,SW,6.9,-,N/A,,Overcast,220,2012-10-05 20:55:00
5:15 PM,68.4,50.4,53,29.91,10.0,SSW,5.8,-,N/A,,Overcast,210,2012-10-05 21:15:00
5:35 PM,68.2,50.9,54,29.91,10.0,SSW,5.8,-,N/A,,Overcast,210,2012-10-05 21:35:00
5:55 PM,67.1,50.5,55,29.91,10.0,SW,8.1,-,N/A,,Mostly Cloudy,220,2012-10-05 21:55:00
6:15 PM,66.7,50.7,56,29.91,10.0,SW,5.8,-,N/A,,Scattered Clouds,230,2012-10-05 22:15:00
6:35 PM,65.5,51.1,60,29.91,10.0,WSW,3.5,-,N/A,,Clear,250,2012-10-05 22:35:00
6:55 PM,65.5,51.6,61,29.92,10.0,WSW,4.6,-,N/A,,Mostly Cloudy,250,2012-10-05 22:55:00
7:15 PM,64.6,52.5,65,29.91,10.0,Calm,Calm,-,N/A,,Overcast,0,2012-10-05 23:15:00
7:35 PM,64.9,52.3,64,29.91,10.0,SW,3.5,-,N/A,,Overcast,230,2012-10-05 23:35:00
7:55 PM,63.0,53.4,71,29.91,10.0,Calm,Calm,-,N/A,,Scattered Clouds,0,2012-10-05 23:55:00
8:15 PM,61.7,53.2,74,29.91,10.0,Calm,Calm,-,N/A,,Scattered Clouds,0,2012-10-06 00:15:00
8:35 PM,59.9,54.1,81,29.91,10.0,ENE,3.5,-,N/A,,Scattered Clouds,60,2012-10-06 00:35:00
8:55 PM,59.7,53.6,80,29.90,10.0,Calm,Calm,-,N/A,,Clear,0,2012-10-06 00:55:00
9:15 PM,61.7,53.8,75,29.91,10.0,Calm,Calm,-,N/A,,Clear,0,2012-10-06 01:15:00
9:35 PM,59.0,52.7,80,29.90,10.0,Calm,Calm,-,N/A,,Scattered Clouds,0,2012-10-06 01:35:00
9:55 PM,61.0,53.4,76,29.90,10.0,Calm,Calm,-,N/A,,Mostly Cloudy,0,2012-10-06 01:55:00
10:15 PM,61.5,53.4,75,29.90,10.0,Calm,Calm,-,N/A,,Overcast,0,2012-10-06 02:15:00
10:35 PM,60.6,53.6,78,29.90,10.0,ESE,4.6,-,N/A,,Overcast,120,2012-10-06 02:35:00
10:55 PM,60.1,53.2,78,29.90,10.0,South,4.6,-,N/A,,Mostly Cloudy,170,2012-10-06 02:55:00
11:15 PM,59.9,53.1,78,29.90,10.0,Calm,Calm,-,N/A,,Mostly Cloudy,0,2012-10-06 03:15:00
11:35 PM,59.2,53.2,81,29.89,10.0,Calm,Calm,-,N/A,,Mostly Cloudy,0,2012-10-06 03:35:00
11:55 PM,59.9,53.2,79,29.89,10.0,SSE,4.6,-,N/A,,Mostly Cloudy,150,2012-10-06 03:55:00